Location: Unspecified
(0.0000°N, 0.0000°E)
Time: 05:48:25
(UTC+00:00)

deb Midas IV - Visible Passes

Search period start: 15 December 2025 00:00
Search period end: 25 December 2025 00:00
Orbit: 3514 x 3768 km, 95.8° (Epoch: 13 December)

Date Brightness Start Highest point End Pass type
(mag) Time Alt. Az. Time Alt. Az. Time Alt. Az.
15 Dec ? 03:45:51 10° SE 04:02:23 40° ENE 04:19:02 10° NNE visible
15 Dec ? 18:59:07 10° NNW 19:13:33 29° WNW 19:27:58 10° SW visible
16 Dec ? 04:39:55 10° SSE 04:58:24 73° ENE 05:17:21 10° N visible
17 Dec ? 03:00:07 10° ESE 03:12:44 22° ENE 03:25:17 10° NNE visible
17 Dec ? 18:06:24 10° N 18:23:46 49° WNW 18:40:52 10° SSW visible
18 Dec ? 03:51:09 10° SSE 04:08:30 47° ENE 04:26:03 10° N visible
18 Dec ? 19:06:54 10° NNW 19:19:36 23° WNW 19:32:19 10° WSW visible
19 Dec ? 04:45:57 10° SSE 05:04:35 83° ENE 05:23:45 10° N visible
20 Dec ? 03:04:21 10° SE 03:18:46 28° ENE 03:33:11 10° NNE visible
20 Dec ? 18:13:22 10° NNW 18:29:54 41° WNW 18:46:15 10° SW visible
21 Dec ? 03:56:42 10° SSE 04:14:39 56° ENE 04:32:54 10° N visible
21 Dec ? 19:15:17 10° NW 19:25:36 18° WNW 19:35:58 10° WSW visible
22 Dec ? 02:22:29 10° E 02:29:19 13° ENE 02:36:06 10° NE visible
22 Dec ? 04:52:08 10° S 05:10:46 86° WSW 05:30:01 10° NNW visible
23 Dec ? 03:09:04 10° SE 03:24:51 34° ENE 03:40:40 10° NNE visible
23 Dec ? 18:20:32 10° NNW 18:35:59 34° WNW 18:51:21 10° SW visible
24 Dec ? 04:02:26 10° SSE 04:20:49 65° ENE 04:39:33 10° N visible
24 Dec ? 19:25:01 10° NW 19:31:34 13° WNW 19:38:09 10° W visible
